New Orleans, LA

9:41 PM CDT on October 22, 2017 (GMT -0500)
New Orleans International

Weather History for KMSY - December, 2012

Change the Weather History Date:

Tuesday, December 11, 2012

  Actual Average Record
Temperature  
Mean Temperature 46 °F -  
Max Temperature 50 °F 64 °F 81 °F (1979)
Min Temperature 43 °F 46 °F 27 °F (1973)
Degree Days  
Heating Degree Days 18    
Moisture  
Dew Point 36 °F    
Average Humidity 67    
Maximum Humidity 76    
Minimum Humidity 52    
Precipitation  
Precipitation 0.00 in - - ()
Sea Level Pressure  
Sea Level Pressure 30.10 in    
Wind  
Wind Speed 13 mph (North)    
Max Wind Speed 17 mph    
Max Gust Speed 22 mph    
Visibility 10 miles    
Events      
Averages and records for this station are not official NWS values.
T = Trace of Precipitation, MM = Missing Value Source: NWS Daily Summary

Daily Weather History Graph

Daily Weather History Graph

Search for Another Location

Airport or City:

Trip Planner

Search our weather history database for the weather conditions in past years. The results will help you decide how hot, cold, wet, or windy it might be!

Date:

Astronomy

Dec. 11, 2012 Rise Set
Actual Time 6:47 AM CST 5:02 PM CST
Civil Twilight 6:20 AM CST 5:28 PM CST
Nautical Twilight 5:50 AM CST 5:58 PM CST
Astronomical Twilight 5:21 AM CST 6:27 PM CST
Moon 4:46 AM CST (12/11) 3:38 PM CST (12/11)
Length of Visible Light 11h 07m
Length of Day
10h 15m
Waning Crescent, 4% of the Moon is Illuminated
Dec 11
Waning Crescent
Dec 13
New
Dec 19
First Quarter
Dec 28
Full
Jan 4
Last Quarter

Hourly Weather History & Observations

Time (CST) Temp. Windchill Dew Point Humidity Pressure Visibility Wind Dir Wind Speed Gust Speed Precip Events Conditions
12:53 AM 48.9 °F - 37.0 °F 64% 30.01 in 10.0 mi North 16.1 mph - N/A   Scattered Clouds
1:53 AM 48.0 °F - 37.9 °F 68% 30.01 in 10.0 mi North 15.0 mph - N/A   Scattered Clouds
2:53 AM 46.9 °F - 37.9 °F 71% 30.02 in 10.0 mi NNE 13.8 mph - N/A   Partly Cloudy
3:53 AM 46.0 °F 40.2 °F 37.9 °F 73% 30.04 in 10.0 mi North 12.7 mph - N/A   Scattered Clouds
4:53 AM 45.0 °F 37.6 °F 37.0 °F 74% 30.05 in 10.0 mi North 17.3 mph 21.9 mph N/A   Scattered Clouds
5:53 AM 44.1 °F 37.4 °F 37.0 °F 76% 30.05 in 10.0 mi North 13.8 mph - N/A   Mostly Cloudy
6:53 AM 44.1 °F 39.0 °F 36.0 °F 73% 30.07 in 10.0 mi North 9.2 mph - N/A   Mostly Cloudy
7:53 AM 45.0 °F 40.6 °F 36.0 °F 71% 30.11 in 10.0 mi North 8.1 mph - N/A   Mostly Cloudy
8:53 AM 45.0 °F 39.7 °F 37.0 °F 74% 30.13 in 10.0 mi North 10.4 mph - N/A   Mostly Cloudy
9:53 AM 45.0 °F 39.7 °F 36.0 °F 71% 30.13 in 10.0 mi North 10.4 mph - N/A   Mostly Cloudy
10:53 AM 46.9 °F - 36.0 °F 66% 30.13 in 10.0 mi North 11.5 mph - N/A   Mostly Cloudy
11:53 AM 46.9 °F - 35.1 °F 63% 30.11 in 10.0 mi North 9.2 mph - N/A   Mostly Cloudy
12:53 PM 46.9 °F - 35.1 °F 63% 30.08 in 10.0 mi North 11.5 mph - N/A   Mostly Cloudy
1:53 PM 48.0 °F - 36.0 °F 63% 30.07 in 10.0 mi North 11.5 mph - N/A   Overcast
2:53 PM 48.0 °F - 35.1 °F 61% 30.08 in 10.0 mi North 10.4 mph - N/A   Mostly Cloudy
3:53 PM 48.0 °F - 35.1 °F 61% 30.10 in 10.0 mi North 8.1 mph - N/A   Mostly Cloudy
4:53 PM 46.9 °F - 36.0 °F 66% 30.10 in 10.0 mi North 9.2 mph - N/A   Mostly Cloudy
5:53 PM 46.9 °F - 36.0 °F 66% 30.11 in 10.0 mi NNE 13.8 mph - N/A   Mostly Cloudy
6:53 PM 46.9 °F - 37.0 °F 68% 30.12 in 10.0 mi NNE 12.7 mph - N/A   Overcast
7:53 PM 46.0 °F 39.9 °F 37.0 °F 71% 30.14 in 10.0 mi NNE 13.8 mph - N/A   Overcast
8:53 PM 46.0 °F 40.6 °F 36.0 °F 68% 30.18 in 10.0 mi NNE 11.5 mph - N/A   Overcast
9:53 PM 46.0 °F 39.3 °F 35.1 °F 66% 30.17 in 10.0 mi NE 16.1 mph - N/A   Overcast
10:53 PM 45.0 °F 38.5 °F 34.0 °F 65% 30.19 in 10.0 mi NE 13.8 mph - N/A   Mostly Cloudy
11:53 PM 44.6 °F 38.4 °F 35.6 °F 71% 30.16 in 10.0 mi NE 12.7 mph - N/A   Mostly Cloudy